sat.trackr.live / text

‹ back to catalog

STARLINK-11398 [DTC]

NORAD 61882 · 2024-204J

PAYLOAD ACTIVE UNKNOWN

§ Identity

Operator
Country
US
Launch date
2024-11-09
Launch site
AFWTR
Launch vehicle
Mass (kg)
RCS (m²)

Purposes: comms

External: N2YO · Heavens-Above · Gunter

§ Orbital elements

Epoch: 2026-05-24T19:51:04.394016Z

Period
91.74 min
Inclination
53.1585°
Eccentricity
0.0000803
Mean motion
15.69696712 rev/d
Perigee alt
359.2 km
Apogee alt
360.3 km
Semi-major
6,737.9 km
B*
6.8446e-6
RAAN
340.8734°
Arg perigee
51.7996°
Mean anomaly
308.3094°
Rev number
8,887

§ Raw data

STARLINK-11398 [DTC]1 61882U 24204J   26144.82713419  .00000241  00000+0  68446-5 0  99982 61882  53.1585 340.8734 0000803  51.7996 308.3094 15.69696712 88871

JSON: /api/v1/satellites/61882 · /tle

For live sub-satellite position, see the globe view (requires WebGL).

§ Visibility from observer

Set your observer location to see the next 7 days of passes ≥ 10°. The values pass through the URL so the page stays shareable.

No JS? Fill the form by hand. The geolocation button needs JavaScript.